Location: Date Creek
(34.2167°N, 113.0301°W)
Time: 12:18:46
(UTC-07:00)

Tiangong 2 - Visible Passes

Search period start: 21 November 2017 00:00
Search period end: 01 December 2017 00:00
Orbit: 386 x 392 km, 42.8° (Epoch: 21 November)

Date Brightness Start Highest point End Pass type
(mag) Time Alt. Az. Time Alt. Az. Time Alt. Az.
24 Nov 4.1 06:09:53 10° S 06:11:54 16° SE 06:13:56 10° E visible
26 Nov 2.7 05:49:43 13° SSW 05:52:09 33° SE 05:55:04 10° ENE visible
27 Nov 4.3 04:55:16 14° ESE 04:55:16 14° ESE 04:56:16 10° E visible
27 Nov 1.1 06:27:37 11° WSW 06:30:40 59° NNW 06:33:50 10° NE visible
28 Nov 1.5 05:32:52 60° E 05:32:52 60° E 05:35:38 10° ENE visible
29 Nov 1.9 06:10:14 28° NW 06:11:07 34° NNW 06:14:05 10° NE visible
30 Nov 3.7 05:15:04 17° NE 05:15:04 17° NE 05:15:56 10° NE visible
30 Nov 2.9 06:47:41 10° WNW 06:50:04 19° N 06:52:28 10° NE visible
